Status of deliveries: all countries

Reporting obligation: WISE SoE - Water Quantity (WISE-3)
Reporting frequency: Annually
Client organisation: European Environment Agency
Other clients using this reporting: Eurostat
Organization for Economic Cooperation and Development
Joint Research Centre - European Commission
Reporting guidelines: Guidelines and templates available through the Reportnet Data Dictionary
384 items found, displaying 1 to 50.[First/Prev] 1, 2, 3, 4, 5, 6, 7, 8 [Next/Last]
Delivery Title Delivery Date Period covered Coverage note Coverage
WISE 3 Water quantity 2018 data call 2019-03-19 2013-01-01/P5Y Netherlands
190220 BEVL_Wise3_WQNT_RY2018 excl MOW 2019-02-20 2018-01-01/P1Y Belgium
PT WISE SoE Water Quantity data V05 2019-02-20 2009-01-01/P9Y Portugal
HR_Water_Quantity_2016_2017_upd 2019-02-20 2016-01-01/P2Y Update Croatia
Water_Quantity_Slovakia_2016_GroundWater 2019-02-06 2016-01-01 Slovakia
Water_Quantity_Slovakia_2017_GroundWater 2019-02-06 2017-01-01 Slovakia
BE - Wallonia - Delivery 2018 - Water Quantity - V2 2019-01-31 2016-01-01/P2Y Wallonia Belgium
PT WISE SoE Water Quantity data V04 - corrections 2019-01-29 2016-01-01/P3Y Portugal
WISE-SoE_WaterQuantity_FR_2018_v1 2019-01-18 2014-01-01/P4Y France
Water_Quantity_Slovakia_2017 2019-01-07 2017-01-01 Slovakia
WISE SoE - Water Quantity 2018-12-26 2016-01-01/P2Y Albania
water qunatity 2018 2018-12-25 2016-01-01/P1Y North Macedonia
PT WISE SoE Water Quantity data V03 2018-12-24 2016-01-01/P3Y Portugal
WISE SoE - Water Quantity 2018 2018-12-22 2016-01-01/P2Y Sweden
AT_Water Quantity 2018 2018-12-22 2015-01-01/P2Y Austria
BE - Wallonia - Delivery 2018 - Water Quantity 2018-12-21 2016-01-01/P2Y Wallonia Belgium
Water Quantity, Iceland 2010-2017 2018-12-21 2016-01-01/P2Y Iceland
Water_Quantity_Slovakia_2016 2018-12-21 2016-01-01 Slovakia
HR_Water_Quantity_2016_2017 2018-12-21 2016-01-01/P2Y First report Croatia
Water Quantity 2017_20181214 2018-12-20 2018-01-01/P1Y Spain
Water Quantity Report 2018 2018-12-20 2018-01-01/P1Y Slovenia
WISE SoE - Water Quantity 2016 update 2018-12-20 2016-01-01 Serbia
WISE SoE Water Quantity 2015 update 2 2018-12-20 2015-01-01 Serbia
WISE SoE - Water Quantity 2017 2018-12-20 2017-01-01 Serbia
DataDeliveryDecember2018 2018-12-20 2016-01-01/P2Y Cyprus
WISE-SoE Water Quantity 2018 2018-12-19 2016-01-01/P2Y Lithuania
groundwater quantity 2016-2017 2018-12-19 2016-01-01/P2Y Denmark
WISE_3_SOE_Groundwater 2018-12-18 2018-01-01/P1Y Sweden
Water Quantity 2018 2018-12-18 2016-01-01/P2Y Luxembourg
Water quantity data 2016-2017 2018-12-18 2016-01-01/P2Y EE Estonia
Renewable Freshwater Resources 2005-2017 2018-12-18 2005-01-01/P13Y Switzerland
Reservoirs Data 2016-2017 2018-12-14 2016-01-01/P2Y Switzerland
Streamflows 2016-2017 2018-12-14 2016-01-01/P2Y Switzerland
WISE SoE - Water Quantity 2018 2018-12-14 2016-01-01/P2Y Ireland
Water quantity and use 2016-2017 2018-12-13 2016-01-01/P2Y Latvia
GW_Levels_2016_2017 2018-12-13 2016-01-01/P2Y Switzerland
WISE SoE - Water Quantity - 2018 2018-12-10 2016-01-01/P2Y Finland
Water Quantity data (WISE-3)2016-2017-GW 2018-12-05 2016-01-01/P2Y Bulgaria
Scotland 2017 2018-12-04 2017-01-01/P1Y Scotland abs only - no reserv - testing United Kingdom
Scotland 2016 2018-12-04 2017-01-01/P1Y United Kingdom
Water Quantity data (WISE-3)2016-2017-SW 2018-11-21 2016-01-01/P2Y Bulgaria
WISE SoE - Water Quantity 2015 update 2018-10-18 2015-01-01 Serbia
WISE SoE - Water Quantity 2016 2018-10-17 2016-01-01 Serbia
WISE SoE - Water Quantity 2014_24_7_2017 2017-08-21 2017-01-01/P1Y Italy
WISE SoE - Water Quantity 2015_24_7_2017 2017-08-21 2017-01-01/P1Y Italy
WISE SoE - Water Quantity 2013_24_7_2017 2017-07-24 2017-01-01/P1Y Italy
WISE SoE - Water Quantity 2013 2017-06-06 2016-01-01/P1Y Italy
WISE SoE - Water Quantity 2015 2017-06-06 2016-01-01/P1Y Italy
WISE SoE - Water Quantity 2014 2017-06-06 2016-01-01/P1Y Italy
HR_WaterQuantity_(WISE-3)_2015 2017-05-19 2015-01-01/P1Y Croatia

Note: This page currently only shows deliveries made to the Reportnet Central Data Repository.
There can be a delay of up to one day before they show up.